Hourly Data Report for September 06, 2017

All times are specified in Local Standard Time (LST). Add 1 hour to adjust for Daylight Saving Time where and when it is observed.

TORONTO INTL A
ONTARIO

43°40'36.000" N
79°37'50.000" W
173.40 m
6158731
71624
YYZ

Download Data

Hourly Data (September 2017)
Hourly Data Report for September 6, 2017
Temp Definition
°C
Dew Point Temp Definition
°C
Rel Hum Definition
%
Wind Dir Definition
10's deg

Wind Spd Definition
km/h
Visibility Definition
km
Stn Press Definition
kPa
Hmdx Definition


Wind Chill Definition


Weather Definition


TIME
00:00 Legend Double Dagger 13.9 10.8 82 31 12 24.1 98.95     LegendNANA
01:00 Legend Double Dagger 13.1 10.2 82 36 3 24.1 98.95     Mostly Cloudy
02:00 Legend Double Dagger 12.0 9.5 85 1 10 24.1 98.95     LegendNANA
03:00 Legend Double Dagger 11.8 9.3 85 30 7 24.1 99.00     LegendNANA
04:00 Legend Double Dagger 11.9 9.6 85 35 5 24.1 98.99     Mainly Clear
05:00 Legend Double Dagger 11.4 8.9 85 31 12 24.1 99.03     LegendNANA
06:00 Legend Double Dagger 11.4 8.8 84 32 13 24.1 99.07     LegendNANA
07:00 Legend Double Dagger 12.7 8.7 76 32 10 24.1 99.12     Mainly Clear
08:00 Legend Double Dagger 14.6 9.2 70 35 6 24.1 99.13     LegendNANA
09:00 Legend Double Dagger 17.0 11.3 69 35 4 24.1 99.13     LegendNANA
10:00 Legend Double Dagger 18.4 9.8 57 26 8 24.1 99.14     Mainly Clear
11:00 Legend Double Dagger 19.0 7.9 48 31 9 24.1 99.10     LegendNANA
12:00 Legend Double Dagger 20.5 9.4 48 27 10 24.1 99.09     LegendNANA
13:00 Legend Double Dagger 19.2 9.5 53 15 13 24.1 99.08     Mostly Cloudy
14:00 Legend Double Dagger 20.3 10.5 53 14 13 24.1 99.05     LegendNANA
15:00 Legend Double Dagger 19.3 9.4 52 14 18 24.1 99.05     LegendNANA
16:00 Legend Double Dagger 19.9 8.7 48 19 10 24.1 99.02     Mostly Cloudy
17:00 Legend Double Dagger 19.4 8.9 50 28 9 24.1 99.04     LegendNANA
18:00 Legend Double Dagger 18.6 8.2 50 28 15 24.1 99.07     LegendNANA
19:00 Legend Double Dagger 17.6 8.7 56 29 13 24.1 99.09     Mostly Cloudy
20:00 Legend Double Dagger 16.3 10.0 66 36 20 24.1 99.11     LegendNANA
21:00 Legend Double Dagger 15.2 10.0 71 35 16 24.1 99.10     LegendNANA
22:00 Legend Double Dagger 14.6 10.6 76 33 18 24.1 99.10     Mostly Cloudy
23:00 Legend Double Dagger 14.2 10.7 79 34 14 24.1 99.09     LegendNANA

Notes on Data Quality.

Legend

  • E = Estimated
  • M = Missing
  • NA = Not Available
  • ‡ = Partner data that is not subject to review by the National Climate Archives
Date modified: